TimeEDT,TemperatureF,Dew PointF,Humidity,Sea Level PressureIn,VisibilityMPH,Wind Direction,Wind SpeedMPH,Gust SpeedMPH,PrecipitationIn,Events,Conditions,WindDirDegrees,DateUTC
12:53 AM,72.0,59.0,64,30.09,10.0,North,5.8,-,N/A,,Clear,350,2012-11-03 04:53:00
1:53 AM,71.1,59.0,66,30.08,10.0,North,5.8,-,N/A,,Clear,350,2012-11-03 05:53:00
2:53 AM,70.0,57.9,65,30.06,10.0,North,5.8,-,N/A,,Clear,10,2012-11-03 06:53:00
3:53 AM,70.0,60.1,71,30.04,10.0,NNE,4.6,-,N/A,,Clear,30,2012-11-03 07:53:00
4:53 AM,70.0,61.0,73,30.05,10.0,NNE,4.6,-,N/A,,Clear,20,2012-11-03 08:53:00
5:53 AM,71.1,60.1,68,30.06,10.0,North,4.6,-,N/A,,Clear,10,2012-11-03 09:53:00
6:53 AM,71.1,62.1,73,30.07,10.0,NNE,6.9,-,N/A,,Clear,20,2012-11-03 10:53:00
7:53 AM,71.1,59.0,66,30.09,10.0,NNE,6.9,-,N/A,,Clear,30,2012-11-03 11:53:00
8:53 AM,72.0,60.1,66,30.11,10.0,NNE,8.1,-,N/A,,Clear,30,2012-11-03 12:53:00
9:53 AM,73.0,61.0,66,30.13,10.0,NNE,10.4,-,N/A,,Clear,30,2012-11-03 13:53:00
10:53 AM,75.0,57.9,55,30.14,10.0,NNE,10.4,-,N/A,,Clear,30,2012-11-03 14:53:00
11:53 AM,75.9,57.9,54,30.13,10.0,NE,10.4,-,N/A,,Clear,40,2012-11-03 15:53:00
12:53 PM,77.0,57.9,52,30.12,10.0,NE,11.5,-,N/A,,Clear,40,2012-11-03 16:53:00
1:53 PM,78.1,55.9,46,30.10,10.0,NE,12.7,-,N/A,,Clear,40,2012-11-03 17:53:00
2:53 PM,79.0,53.1,40,30.08,10.0,NE,10.4,-,N/A,,Clear,40,2012-11-03 18:53:00
3:53 PM,79.0,53.1,40,30.07,10.0,NE,10.4,-,N/A,,Clear,50,2012-11-03 19:53:00
4:53 PM,79.0,52.0,39,30.06,10.0,NE,10.4,-,N/A,,Clear,50,2012-11-03 20:53:00
5:53 PM,77.0,52.0,42,30.06,10.0,NE,8.1,-,N/A,,Clear,40,2012-11-03 21:53:00
6:53 PM,75.0,57.0,53,30.07,10.0,NE,5.8,-,N/A,,Clear,50,2012-11-03 22:53:00
7:53 PM,73.9,60.1,62,30.08,10.0,NNE,4.6,-,N/A,,Clear,30,2012-11-03 23:53:00
8:53 PM,73.9,61.0,64,30.09,10.0,NE,4.6,-,N/A,,Clear,40,2012-11-04 00:53:00
9:53 PM,75.0,61.0,62,30.10,10.0,NE,5.8,-,N/A,,Clear,50,2012-11-04 01:53:00
10:53 PM,75.0,62.1,64,30.11,10.0,NE,6.9,-,N/A,,Clear,50,2012-11-04 02:53:00
11:53 PM,73.9,62.1,66,30.10,10.0,ENE,5.8,-,N/A,,Clear,60,2012-11-04 03:53:00